{"data":{"norad_id":52643,"intl_designator":"2022-052AX","name":"STARLINK-3963","alt_names":[],"object_type":"PAYLOAD","status":"ACTIVE","operator":null,"country":"US","launch_date":"2022-05-14","launch_site_code":"AFETR","launch_vehicle":null,"mission":null,"orbit_class":"UNKNOWN","rcs_meters":null,"size_class":null,"mass_kg":null,"dimensions":null,"purposes":["comms"],"wikipedia_slug":null,"has_3d_model":false,"image_url":null,"decayed_at":null,"tle_current":{"epoch":"2026-05-24T18:10:39.232992Z","epoch_age_seconds":102991,"freshness":"FRESH","line1":"1 52643U 22052AX  26144.75739853  .00001120  00000+0  88442-4 0  9998","line2":"2 52643  53.2141 277.6100 0001246  93.3687 266.7447 15.08841838222615","mean_motion":15.08841838,"eccentricity":0.0001246,"inclination_deg":53.2141,"raan_deg":277.61,"arg_perigee_deg":93.3687,"mean_anomaly_deg":266.7447,"bstar":8.8442e-5,"rev_number":22261,"period_min":95.437438420236,"perigee_km":538.87580374265,"apogee_km":540.59973813557,"semimajor_km":6917.8747709391,"source":"CELESTRAK","updated_at":"2026-05-25T13:38:17.207333Z"}}}